When you browse on this site, cookies collect data to enhance your experience and personalize the content and advertising you see.
Visit our Privacy Policy to learn more. By continuing to use the site, you agree to this use of cookies and data.
EN

Hourly Weather Mbandaka

Today, 15 August, Saturday

Time Temperature Precipitation Wind Pressure Humidity
00:00 +26°C° 0 mm 1 mps 729 mmHg 79%
01:00 +25°C° 0 mm 1 mps 729 mmHg 83%
02:00 +25°C° 0.2 mm 1 mps 729 mmHg 85%
03:00 +24°C° 0.2 mm 1 mps 729 mmHg 87%
04:00 +24°C° 0.2 mm 1 mps 729 mmHg 90%
05:00 +24°C° 0 mm 1 mps 730 mmHg 89%
06:00 +25°C° 0 mm 1 mps 730 mmHg 88%
07:00 +25°C° 0 mm 1 mps 730 mmHg 87%
08:00 +27°C° 0.2 mm 1 mps 731 mmHg 78%
09:00 +29°C° 0.2 mm 1 mps 731 mmHg 69%
10:00 +32°C° 0.2 mm 1 mps 731 mmHg 60%
11:00 +32°C° 0.2 mm 1 mps 730 mmHg 56%
12:00 +34°C° 0.2 mm 2 mps 729 mmHg 52%
13:00 +35°C° 0.2 mm 2 mps 729 mmHg 48%
14:00 +34°C° 0.1 mm 1 mps 728 mmHg 49%
15:00 +34°C° 0.1 mm 1 mps 727 mmHg 50%
16:00 +33°C° 0.1 mm 1 mps 727 mmHg 51%
17:00 +31°C° 0.6 mm 1 mps 727 mmHg 61%
18:00 +29°C° 0.6 mm 1 mps 728 mmHg 70%
19:00 +27°C° 0.6 mm 1 mps 728 mmHg 80%
20:00 +26°C° 0.7 mm 1 mps 728 mmHg 83%
21:00 +24°C° 0.7 mm 0 mps 729 mmHg 87%
22:00 +23°C° 0.7 mm 0 mps 729 mmHg 90%
23:00 +23°C° 0.4 mm 0 mps 729 mmHg 91%

Tomorrow, 16 August, Sunday

Time Temperature Precipitation Wind Pressure Humidity
00:00 +25°C° 0.4 mm 1 mps 729 mmHg 92%
01:00 +24°C° 0.4 mm 1 mps 730 mmHg 94%
02:00 +24°C° 1.2 mm 1 mps 729 mmHg 95%
03:00 +24°C° 1.2 mm 1 mps 729 mmHg 97%
04:00 +24°C° 1.2 mm 1 mps 729 mmHg 98%
05:00 +24°C° 0.4 mm 1 mps 729 mmHg 97%
06:00 +24°C° 0.4 mm 1 mps 730 mmHg 96%
07:00 +25°C° 0.4 mm 1 mps 731 mmHg 94%
08:00 +26°C° 0 mm 1 mps 731 mmHg 90%
09:00 +27°C° 0 mm 1 mps 731 mmHg 85%
10:00 +28°C° 0 mm 1 mps 731 mmHg 80%
11:00 +29°C° 0 mm 1 mps 730 mmHg 73%
12:00 +30°C° 0 mm 2 mps 730 mmHg 67%
13:00 +32°C° 0 mm 2 mps 729 mmHg 60%
14:00 +32°C° 0.4 mm 1 mps 729 mmHg 60%
15:00 +32°C° 0.4 mm 1 mps 728 mmHg 60%
16:00 +30°C° 0.4 mm 0 mps 728 mmHg 59%
17:00 +28°C° 1.5 mm 0 mps 728 mmHg 70%
18:00 +26°C° 1.5 mm 0 mps 728 mmHg 80%
19:00 +24°C° 1.5 mm 0 mps 729 mmHg 90%
20:00 +25°C° 0.8 mm 1 mps 729 mmHg 91%
21:00 +25°C° 0.8 mm 1 mps 729 mmHg 92%
22:00 +25°C° 0.8 mm 1 mps 730 mmHg 93%
23:00 +25°C° 0 mm 1 mps 730 mmHg 94%

Day after tomorrow, 17 August, Monday

Time Temperature Precipitation Wind Pressure Humidity
00:00 +25°C° 0 mm 1 mps 729 mmHg 95%
01:00 +25°C° 0 mm 1 mps 729 mmHg 95%
02:00 +24°C° 0 mm 1 mps 729 mmHg 96%
03:00 +24°C° 0 mm 1 mps 729 mmHg 96%
04:00 +24°C° 0 mm 2 mps 729 mmHg 96%
05:00 +24°C° 0 mm 1 mps 729 mmHg 95%
06:00 +24°C° 0 mm 1 mps 730 mmHg 95%
07:00 +22°C° 0 mm 0 mps 730 mmHg 95%
08:00 +26°C° 0 mm 1 mps 730 mmHg 86%
09:00 +28°C° 0 mm 1 mps 730 mmHg 77%
10:00 +29°C° 0 mm 1 mps 731 mmHg 69%
11:00 +30°C° 0 mm 1 mps 730 mmHg 64%
12:00 +32°C° 0 mm 1 mps 729 mmHg 59%
13:00 +34°C° 0 mm 2 mps 729 mmHg 55%
14:00 +33°C° 0.1 mm 1 mps 728 mmHg 57%
15:00 +32°C° 0.1 mm 1 mps 728 mmHg 58%
16:00 +32°C° 0.1 mm 1 mps 727 mmHg 60%
17:00 +30°C° 0.4 mm 1 mps 727 mmHg 69%
18:00 +28°C° 0.4 mm 1 mps 728 mmHg 78%
19:00 +26°C° 0.4 mm 1 mps 728 mmHg 86%
20:00 +26°C° 0.1 mm 1 mps 729 mmHg 88%
21:00 +26°C° 0.1 mm 1 mps 729 mmHg 89%
22:00 +26°C° 0.1 mm 1 mps 730 mmHg 90%
23:00 +25°C° 0.5 mm 1 mps 730 mmHg 91%

18 August, Tuesday

Time Temperature Precipitation Wind Pressure Humidity
00:00 +25°C° 0.5 mm 1 mps 729 mmHg 91%
01:00 +25°C° 0.5 mm 1 mps 729 mmHg 92%
02:00 +25°C° 0.4 mm 1 mps 729 mmHg 93%
03:00 +25°C° 0.4 mm 1 mps 729 mmHg 93%
04:00 +25°C° 0.4 mm 1 mps 729 mmHg 94%
05:00 +25°C° 0.1 mm 1 mps 729 mmHg 93%
06:00 +25°C° 0.1 mm 1 mps 730 mmHg 92%
07:00 +25°C° 0.1 mm 1 mps 730 mmHg 91%
08:00 +26°C° 0.3 mm 2 mps 730 mmHg 86%
09:00 +27°C° 0.3 mm 2 mps 731 mmHg 81%
10:00 +28°C° 0.3 mm 2 mps 731 mmHg 76%
11:00 +29°C° 0.7 mm 2 mps 730 mmHg 74%
12:00 +29°C° 0.7 mm 2 mps 729 mmHg 73%
13:00 +30°C° 0.7 mm 2 mps 728 mmHg 71%
14:00 +30°C° 0.6 mm 1 mps 728 mmHg 72%
15:00 +30°C° 0.6 mm 1 mps 727 mmHg 73%
16:00 +29°C° 0.6 mm 1 mps 727 mmHg 74%
17:00 +28°C° 0.3 mm 1 mps 727 mmHg 79%
18:00 +27°C° 0.3 mm 1 mps 728 mmHg 83%
19:00 +24°C° 0.3 mm 0 mps 728 mmHg 88%
20:00 +26°C° 0 mm 1 mps 729 mmHg 89%
21:00 +25°C° 0 mm 1 mps 729 mmHg 90%
22:00 +25°C° 0 mm 1 mps 729 mmHg 91%
23:00 +25°C° 0 mm 1 mps 729 mmHg 92%

19 August, Wednesday

Time Temperature Precipitation Wind Pressure Humidity
00:00 +25°C° 0 mm 1 mps 729 mmHg 92%
01:00 +25°C° 0 mm 1 mps 729 mmHg 93%
02:00 +25°C° 0 mm 1 mps 729 mmHg 93%
03:00 +25°C° 0 mm 1 mps 728 mmHg 93%
04:00 +25°C° 0 mm 1 mps 728 mmHg 93%
05:00 +25°C° 0.1 mm 1 mps 729 mmHg 92%
06:00 +23°C° 0.1 mm 0 mps 729 mmHg 91%
07:00 +23°C° 0.1 mm 0 mps 730 mmHg 90%
08:00 +26°C° 1.1 mm 1 mps 730 mmHg 87%
09:00 +28°C° 1.1 mm 1 mps 730 mmHg 83%
10:00 +29°C° 1.1 mm 1 mps 730 mmHg 80%
11:00 +29°C° 1 mm 1 mps 730 mmHg 78%
12:00 +29°C° 1 mm 1 mps 729 mmHg 75%
13:00 +30°C° 1 mm 1 mps 728 mmHg 73%
14:00 +29°C° 1.2 mm 1 mps 728 mmHg 76%
15:00 +29°C° 1.2 mm 1 mps 728 mmHg 78%
16:00 +29°C° 1.2 mm 1 mps 727 mmHg 81%
17:00 +28°C° 0.5 mm 1 mps 728 mmHg 84%
18:00 +24°C° 0.5 mm 0 mps 728 mmHg 88%
19:00 +23°C° 0.5 mm 0 mps 728 mmHg 92%
20:00 +23°C° 0 mm 0 mps 728 mmHg 92%
21:00 +23°C° 0 mm 0 mps 729 mmHg 92%
22:00 +23°C° 0 mm 0 mps 729 mmHg 91%
23:00 +22°C° 0 mm 0 mps 729 mmHg 91%

20 August, Thursday

Time Temperature Precipitation Wind Pressure Humidity
00:00 +22°C° 0 mm 0 mps 728 mmHg 91%
01:00 +22°C° 0 mm 0 mps 728 mmHg 91%
02:00 +22°C° 0 mm 0 mps 728 mmHg 92%
03:00 +21°C° 0 mm 0 mps 728 mmHg 93%
04:00 +21°C° 0 mm 0 mps 728 mmHg 93%
05:00 +22°C° 0 mm 0 mps 728 mmHg 92%
06:00 +22°C° 0 mm 0 mps 729 mmHg 91%
07:00 +22°C° 0 mm 0 mps 729 mmHg 90%
08:00 +25°C° 0 mm 0 mps 730 mmHg 80%
09:00 +27°C° 0 mm 0 mps 730 mmHg 69%
10:00 +32°C° 0 mm 1 mps 730 mmHg 58%
11:00 +31°C° 0.8 mm 1 mps 729 mmHg 62%
12:00 +31°C° 0.8 mm 1 mps 729 mmHg 65%
13:00 +31°C° 0.8 mm 2 mps 728 mmHg 68%
14:00 +30°C° 1 mm 2 mps 727 mmHg 71%
15:00 +30°C° 1 mm 1 mps 727 mmHg 75%
16:00 +29°C° 1 mm 1 mps 726 mmHg 79%
17:00 +28°C° 0.2 mm 1 mps 727 mmHg 83%
18:00 +27°C° 0.2 mm 1 mps 727 mmHg 87%
19:00 +25°C° 0.2 mm 1 mps 728 mmHg 92%
20:00 +25°C° 0 mm 1 mps 728 mmHg 92%
21:00 +25°C° 0 mm 1 mps 729 mmHg 92%
22:00 +25°C° 0 mm 1 mps 729 mmHg 92%
23:00 +24°C° 0 mm 1 mps 729 mmHg 93%
Show more